{"data":{"norad_id":60406,"intl_designator":"2024-141J","name":"STARLINK-11150 [DTC]","alt_names":[],"object_type":"PAYLOAD","status":"ACTIVE","operator":null,"country":"US","launch_date":"2024-08-10","launch_site_code":"AFETR","launch_vehicle":null,"mission":null,"orbit_class":"UNKNOWN","rcs_meters":null,"size_class":null,"mass_kg":null,"dimensions":null,"purposes":["comms"],"wikipedia_slug":null,"has_3d_model":false,"image_url":null,"decayed_at":null,"tle_current":{"epoch":"2026-09-21T02:40:47.239104Z","epoch_age_seconds":132785,"freshness":"FRESH","line1":"1 60406U 24141J   26264.11165786  .00000572  00000+0  95836-5 0  9992","line2":"2 60406  53.1601 203.0835 0001131  87.4944 272.6204 15.69708626122432","mean_motion":15.69708626,"eccentricity":0.0001131,"inclination_deg":53.1601,"raan_deg":203.0835,"arg_perigee_deg":87.4944,"mean_anomaly_deg":272.6204,"bstar":9.5836e-6,"rev_number":12243,"period_min":91.736770515779,"perigee_km":358.96862944984,"apogee_km":360.49273511958,"semimajor_km":6737.8676822847,"source":"CELESTRAK","updated_at":"2026-09-22T09:00:49.230350Z"}}}